Regional Weather Roundup
Issued by NWS

Home | Current Version | Previous Version | Graphics & Text | Print | Product List | Glossary On
Versions: 1 2 3 4 5 6 7 8 9 10 11 12 13 14 15 16 17 18 19 20 21 22 23 24 25 26 27 28 29 30 31 32 33 34 35 36 37 38 39 40 41 42 43 44 45 46 47 48 49 50
000
ASUS43 KIND 311359
RWRIN

WEATHER ROUNDUP FOR INDIANA
NATIONAL WEATHER SERVICE INDIANAPOLIS IN
1000 AM EDT FRI OCT 31 2014

NOTE: "FAIR" INDICATES FEW OR NO CLOUDS BELOW 12,000 FEET WITH NO
SIGNIFICANT WEATHER AND/OR OBSTRUCTIONS TO VISIBILITY.

* - STATION DOES NOT REPORT WEATHER SUCH AS PRECIPITATION OR FOG.

+ - STATION NOT QUALITY CONTROLLED BY THE NATIONAL WEATHER SERVICE.
    USE DATA WITH CAUTION...ESPECIALLY DEWPOINT AND RELATIVE
    HUMIDITY OBSERVATIONS.

INZ001>003-010>013-019-020-311500-
NORTHWEST INDIANA

CITY           SKY/WX    TMP DP  RH WIND       PRES   REMARKS
GARY /AIRPORT/ LGT SNOW  37  32  81 NW10G39   30.08S
VALPARAISO     NOT AVBL

$$

LMZ046-743>745-311500-
SOUTHERN LAKE MICHIGAN

STATION/POSITION TIME  TEMP WIND        PRES
                       AIR  DIR/SP/G
                 (UTC) (F)  (DEG/KT/KT) (MB)
MICHIGAN CITY    1300   42  300/ 30/ 38   N/A

$$

INZ004-005-014>016-021>024-311500-
NORTH CENTRAL INDIANA

CITY           SKY/WX    TMP DP  RH WIND       PRES   REMARKS
ELKHART        LGT RAIN  39  36  87 NW9G17    29.98
GOSHEN         LGT RAIN  40  37  89 NW13      29.97S
SOUTH BEND     LGT RAIN  40  35  83 NW16      30.00R

$$

INZ006>009-017-018-025>027-311500-
NORTHEAST INDIANA

CITY           SKY/WX    TMP DP  RH WIND       PRES   REMARKS
ANGOLA *+        N/A     39  37  93 NW10      29.94R
FORT WAYNE     LGT RAIN  41  37  86 NW15      29.96R

$$

INZ028-029-035-036-043>045-051>053-311500-
WEST CENTRAL INDIANA

CITY           SKY/WX    TMP DP  RH WIND       PRES   REMARKS
GREENCASTLE +  LGT RAIN  37  36  93 NW14G21   30.05R
LAFAYETTE      CLOUDY    39  36  89 NW8       30.06R
TERRE HAUTE    CLOUDY    42  36  79 N12G23    30.08R

$$

INZ030>032-037>040-046>048-054>057-064-065-311500-
CENTRAL INDIANA

CITY           SKY/WX    TMP DP  RH WIND       PRES   REMARKS
ANDERSON       LGT RAIN  43  41  93 W12G17    29.98S
COLUMBUS       CLOUDY    45  41  87 NW7       30.00S
INDIANAPOLIS   LGT RAIN  43  39  86 NW14      29.99S
-EAGLE CREEK   LGT RAIN  44  40  85 NW22G33   30.00R
KOKOMO *+      CLOUDY    39  34  81 NW16G22   30.01R
MT COMFORT *+  CLOUDY    43  41  93 NW9       29.99S
SHELBYVILLE    LGT RAIN  46  40  79 W8        29.98S

$$

INZ033-034-041-042-049-050-058-059-311500-
EAST CENTRAL INDIANA

CITY           SKY/WX    TMP DP  RH WIND       PRES   REMARKS
MUNCIE         LGT RAIN  43  40  89 W8        29.96S FOG

$$

INZ060-061-067>069-081>083-085>088-311500-
SOUTHWEST INDIANA

CITY           SKY/WX    TMP DP  RH WIND       PRES   REMARKS
EVANSVILLE     LGT RAIN  48  43  82 NW7       30.08R
HUNTINGBURG *+ PTSUNNY   46  41  81 NW8       30.06R

$$

INZ062-063-066-070>080-084-089>092-311500-
SOUTH CENTRAL AND SOUTHEAST INDIANA

CITY           SKY/WX    TMP DP  RH WIND       PRES   REMARKS
BLOOMINGTON    CLOUDY    44  42  93 NW8       30.02R
SEYMOUR +      CLOUDY    46  43  87 W7        30.01S

$$




USA.gov is the U.S. government's official web portal to all federal, state and local government web resources and services.